This is the latest recevied weather packets stored in our database for station/object KC8VEU. If no packets are shown the sender has not sent any weather packets the latest 10 day(s).
| Time | Temp. | Humidity | Pressure | Rain* | Wind** | Luminosity | Snow |
|---|---|---|---|---|---|---|---|
| 1778053216 | 1.67° C | 63% | 1000.8 hPa | 0 mm | - | - | - |
| 1778052636 | 1.67° C | 66% | 1000.8 hPa | 0 mm | - | - | - |
| 1778049017 | 1.67° C | 72% | 1000.9 hPa | 0 mm | - | - | - |
| 1778047816 | 1.67° C | 74% | 1000.8 hPa | 0 mm | - | - | - |
| 1778038237 | 1.67° C | 66% | 1000.6 hPa | 0 mm | - | - | - |
| 1778037637 | 1.67° C | 65% | 1000.6 hPa | 0 mm | - | - | - |
| 1778033717 | 1.67° C | 60% | 1000.4 hPa | 0 mm | - | - | - |
| 1778029517 | 1.67° C | 60% | 999.9 hPa | 0 mm | - | - | - |
| 1778028917 | 1.67° C | 60% | 999.9 hPa | 0 mm | - | - | - |
| 1778028317 | 1.67° C | 61% | 999.8 hPa | 0 mm | - | - | - |
| 1778027117 | 1.67° C | 63% | 999.9 hPa | 0 mm | - | - | - |
| 1778024717 | 1.67° C | 64% | 999.7 hPa | 0 mm | - | - | - |
| 1778023517 | 1.11° C | 68% | 999.7 hPa | 0 mm | - | - | - |
| 1778019317 | 1.67° C | 66% | 999.4 hPa | 0 mm | - | - | - |
| 1778018717 | 1.67° C | 65% | 999.3 hPa | 0 mm | - | - | - |
| 1778016917 | 1.67° C | 66% | 999.3 hPa | 0 mm | - | - | - |
| 1778015717 | 1.67° C | 64% | 999.2 hPa | 0 mm | - | - | - |
| 1778005517 | 2.22° C | 68% | 997.7 hPa | 0 mm | - | - | - |
| 1778004917 | 2.78° C | 71% | 997.6 hPa | 0 mm | - | - | - |
| 1778004337 | 2.78° C | 70% | 997.4 hPa | 0 mm | - | - | - |
| 1777999516 | 1.11° C | 75% | 996.9 hPa | 0 mm | - | - | - |
| 1777997716 | 1.11° C | 77% | 996.6 hPa | 0 mm | - | - | - |
| 1777992316 | 1.11° C | 87% | 995.6 hPa | 0 mm | - | - | - |
| 1777990517 | 0.56° C | 91% | 995.1 hPa | 0 mm | - | - | - |
| 1777987537 | 1.67° C | 84% | 994.4 hPa | 0 mm | - | - | - |
* Rain latest hour (hover to see other rain measurements)
** Current wind speed in m/s (hover to see current wind gust speed)